| time (UTC) | temp F | wind direction | speed knots | gust knots | rain 1hr in | rain 24hr in | rain mn in | humidity % | barometer mb |
| 20260906113043 | 80 | 0 | 0.0 | 0.0 | 0.01 | 0.16 | 0.16 | 98 | 1011.2 |
| 20260906111548 | 80 | 0 | 0.0 | 0.0 | 0.01 | 0.16 | 0.16 | 97 | 1011.1 |
| 20260906110042 | 80 | 0 | 0.0 | 0.0 | 0.01 | 0.16 | 0.16 | 97 | 1011.0 |
| 20260906104543 | 80 | 0 | 0.0 | 0.0 | 0.01 | 0.16 | 0.16 | 97 | 1010.8 |
| 20260906103050 | 80 | 0 | 0.0 | 0.0 | 0.00 | 0.15 | 0.15 | 97 | 1010.7 |
| 20260906101546 | 80 | 0 | 0.0 | 0.0 | 0.00 | 0.15 | 0.15 | 97 | 1010.8 |
| 20260906100055 | 80 | 0 | 0.0 | 0.0 | 0.00 | 0.15 | 0.15 | 97 | 1010.6 |
| 20260906094548 | 80 | 0 | 0.0 | 0.0 | 0.00 | 0.15 | 0.15 | 97 | 1010.3 |
| 20260906093043 | 80 | 0 | 0.0 | 0.0 | 0.00 | 0.15 | 0.15 | 97 | 1010.3 |
| 20260906091541 | 80 | 0 | 0.0 | 0.0 | 0.00 | 0.15 | 0.15 | 97 | 1010.2 |
| 20260906090043 | 80 | 0 | 0.0 | 0.0 | 0.00 | 0.15 | 0.15 | 97 | 1010.5 |
| 20260906084551 | 81 | 0 | 0.0 | 0.0 | 0.00 | 0.15 | 0.15 | 97 | 1010.5 |
| 20260906083046 | 81 | 0 | 0.0 | 0.0 | 0.00 | 0.15 | 0.15 | 97 | 1010.4 |
| 20260906081543 | 81 | 0 | 0.0 | 0.0 | 0.00 | 0.15 | 0.15 | 96 | 1010.5 |
| 20260906080052 | 81 | 0 | 0.0 | 0.0 | 0.00 | 0.15 | 0.15 | 96 | 1010.7 |
| 20260906074549 | 81 | 0 | 0.0 | 0.0 | 0.00 | 0.15 | 0.15 | 96 | 1010.6 |
| 20260906073045 | 81 | 0 | 0.0 | 0.0 | 0.00 | 0.15 | 0.15 | 96 | 1010.7 |
| 20260906071546 | 81 | 0 | 0.0 | 0.0 | 0.00 | 0.15 | 0.15 | 96 | 1010.8 |
| 20260906070043 | 81 | 0 | 0.0 | 0.0 | 0.00 | 0.15 | 0.15 | 96 | 1010.7 |
| 20260906064543 | 81 | 0 | 0.0 | 0.0 | 0.00 | 0.15 | 0.15 | 96 | 1010.7 |
| 20260906063045 | 82 | 0 | 0.0 | 0.0 | 0.00 | 0.15 | 0.15 | 96 | 1010.8 |
| 20260906061549 | 82 | 0 | 0.0 | 0.0 | 0.00 | 0.15 | 0.15 | 95 | 1010.6 |
| 20260906060043 | 82 | 0 | 0.0 | 0.0 | 0.02 | 0.15 | 0.15 | 95 | 1010.7 |
| 20260906054600 | 82 | 0 | 0.0 | 0.0 | 0.07 | 0.15 | 0.15 | 95 | 1010.8 |
| 20260906053045 | 82 | 0 | 0.0 | 0.0 | 0.15 | 0.15 | 0.15 | 95 | 1011.0 |
| 20260906051544 | 83 | 0 | 0.0 | 0.0 | 0.14 | 0.14 | 0.14 | 95 | 1011.2 |
| 20260906050041 | 83 | 0 | 0.0 | 0.9 | 0.13 | 0.13 | 0.13 | 94 | 1011.4 |
| 20260906044539 | 83 | 0 | 0.0 | 1.7 | 0.07 | 0.07 | 0.07 | 94 | 1011.7 |
| 20260906043045 | 83 | 0 | 0.0 | 0.0 | 0.00 | 0.00 | 0.00 | 94 | 1011.8 |
| 20260906041545 | 84 | 0 | 0.0 | 0.0 | 0.00 | 0.00 | 0.00 | 94 | 1011.7 |
| 20260906040047 | 84 | 0 | 0.0 | 0.0 | 0.00 | 0.00 | 0.00 | 93 | 1011.9 |
| 20260906034548 | 84 | 0 | 0.0 | 0.9 | 0.00 | 0.00 | 0.00 | 93 | 1011.7 |
| 20260906033046 | 84 | 0 | 0.0 | 0.0 | 0.00 | 0.00 | 0.00 | 93 | 1012.0 |
| 20260906031604 | 84 | 0 | 0.0 | 0.0 | 0.00 | 0.00 | 0.00 | 93 | 1012.1 |
| 20260906030041 | 84 | 0 | 0.0 | 0.0 | 0.00 | 0.00 | 0.00 | 93 | 1012.0 |
| 20260906024555 | 84 | 0 | 0.0 | 0.9 | 0.00 | 0.00 | 0.00 | 93 | 1011.5 |
| 20260906023046 | 84 | 0 | 0.0 | 0.9 | 0.00 | 0.00 | 0.00 | 93 | 1011.0 |
| 20260906021542 | 84 | 219 | 0.0 | 1.7 | 0.00 | 0.00 | 0.00 | 92 | 1010.8 |
| 20260906020044 | 84 | 0 | 0.0 | 0.0 | 0.00 | 0.00 | 0.00 | 92 | 1011.3 |
| 20260906014547 | 85 | 0 | 0.0 | 0.0 | 0.00 | 0.00 | 0.00 | 92 | 1011.4 |
| 20260906013043 | 85 | 0 | 0.0 | 0.0 | 0.00 | 0.00 | 0.00 | 92 | 1011.6 |
| 20260906011542 | 85 | 0 | 0.0 | 0.9 | 0.00 | 0.00 | 0.00 | 91 | 1011.4 |
| 20260906010049 | 85 | 0 | 0.0 | 0.0 | 0.00 | 0.00 | 0.00 | 91 | 1011.4 |
| 20260906004543 | 85 | 0 | 0.0 | 0.0 | 0.00 | 0.00 | 0.00 | 90 | 1011.6 |
| 20260906003041 | 85 | 0 | 0.0 | 0.0 | 0.00 | 0.00 | 0.00 | 90 | 1011.8 |
| 20260906001543 | 85 | 0 | 0.0 | 0.0 | 0.00 | 0.00 | 0.00 | 89 | 1011.8 |
| 20260906000050 | 86 | 0 | 0.0 | 0.0 | 0.00 | 0.00 | 0.00 | 89 | 1011.9 |
| 20260905234551 | 86 | 0 | 0.0 | 0.9 | 0.00 | 0.00 | 0.00 | 88 | 1011.6 |
| 20260905233041 | 86 | 0 | 0.0 | 0.0 | 0.00 | 0.00 | 0.00 | 88 | 1011.7 |
| 20260905231541 | 87 | 0 | 0.0 | 0.9 | 0.00 | 0.00 | 0.00 | 87 | 1011.5 |
| 20260905230046 | 87 | 0 | 0.0 | 1.7 | 0.00 | 0.00 | 0.00 | 87 | 1011.2 |
| 20260905224543 | 87 | 0 | 0.0 | 1.7 | 0.00 | 0.00 | 0.00 | 87 | 1011.3 |
| 20260905223041 | 87 | 0 | 0.0 | 1.7 | 0.00 | 0.00 | 0.00 | 86 | 1011.4 |
| 20260905221539 | 87 | 0 | 0.0 | 1.7 | 0.00 | 0.00 | 0.00 | 86 | 1011.4 |
| 20260905220044 | 87 | 189 | 0.9 | 2.6 | 0.00 | 0.00 | 0.00 | 86 | 1011.5 |
| 20260905214543 | 87 | 0 | 0.0 | 1.7 | 0.00 | 0.00 | 0.00 | 85 | 1011.5 |
| 20260905213046 | 87 | 0 | 0.0 | 2.6 | 0.00 | 0.00 | 0.00 | 85 | 1011.4 |
| 20260905211600 | 88 | 180 | 0.0 | 2.6 | 0.00 | 0.00 | 0.00 | 86 | 1011.3 |
| 20260905210053 | 88 | 0 | 0.0 | 0.0 | 0.00 | 0.00 | 0.00 | 85 | 1011.3 |
| 20260905204543 | 88 | 123 | 0.0 | 3.5 | 0.00 | 0.00 | 0.00 | 84 | 1011.1 |
| 20260905203049 | 88 | 117 | 0.0 | 3.5 | 0.00 | 0.00 | 0.00 | 85 | 1010.9 |
| 20260905201550 | 88 | 133 | 0.9 | 1.7 | 0.00 | 0.00 | 0.00 | 85 | 1010.9 |
| 20260905200043 | 88 | 117 | 0.0 | 5.2 | 0.00 | 0.00 | 0.00 | 84 | 1011.0 |
| 20260905194542 | 88 | 111 | 1.7 | 5.2 | 0.00 | 0.00 | 0.00 | 84 | 1011.1 |
| 20260905193045 | 88 | 113 | 0.0 | 3.5 | 0.00 | 0.00 | 0.00 | 85 | 1011.2 |
| 20260905191542 | 88 | 134 | 0.9 | 6.1 | 0.00 | 0.00 | 0.00 | 85 | 1011.5 |
| 20260905190042 | 88 | 82 | 0.9 | 7.0 | 0.00 | 0.00 | 0.00 | 84 | 1011.8 |
| 20260905184545 | 88 | 0 | 0.9 | 5.2 | 0.00 | 0.00 | 0.00 | 84 | 1012.0 |
| 20260905183046 | 87 | 124 | 1.7 | 5.2 | 0.00 | 0.00 | 0.00 | 84 | 1012.4 |
| 20260905181542 | 87 | 148 | 0.0 | 2.6 | 0.00 | 0.00 | 0.00 | 85 | 1012.5 |
| 20260905180047 | 87 | 189 | 1.7 | 4.3 | 0.00 | 0.00 | 0.00 | 86 | 1012.7 |
| 20260905174545 | 86 | 171 | 2.6 | 7.0 | 0.00 | 0.00 | 0.00 | 87 | 1013.2 |
| 20260905173056 | 86 | 0 | 0.0 | 2.6 | 0.00 | 0.00 | 0.00 | 85 | 1013.5 |
| 20260905171541 | 86 | 0 | 0.0 | 4.3 | 0.00 | 0.00 | 0.00 | 84 | 1013.6 |
| 20260905170042 | 86 | 117 | 2.6 | 6.1 | 0.00 | 0.00 | 0.00 | 85 | 1013.7 |
| 20260905164540 | 87 | 96 | 3.5 | 6.1 | 0.00 | 0.00 | 0.00 | 86 | 1013.9 |
| 20260905163043 | 86 | 113 | 1.7 | 6.1 | 0.00 | 0.00 | 0.00 | 86 | 1014.1 |
| 20260905161543 | 86 | 0 | 0.9 | 4.3 | 0.00 | 0.00 | 0.00 | 88 | 1014.1 |
| 20260905160041 | 86 | 129 | 0.0 | 3.5 | 0.00 | 0.00 | 0.00 | 87 | 1014.3 |
| 20260905154544 | 86 | 0 | 0.0 | 0.0 | 0.00 | 0.00 | 0.00 | 87 | 1014.4 |
| 20260905153046 | 87 | 0 | 0.0 | 0.0 | 0.00 | 0.00 | 0.00 | 84 | 1014.4 |
| 20260905151548 | 87 | 0 | 0.0 | 0.0 | 0.00 | 0.00 | 0.00 | 85 | 1014.6 |
| 20260905150039 | 87 | 0 | 0.0 | 0.0 | 0.00 | 0.00 | 0.00 | 85 | 1014.6 |
| 20260905144540 | 86 | 0 | 0.0 | 0.0 | 0.00 | 0.00 | 0.00 | 88 | 1014.8 |
| 20260905143048 | 85 | 0 | 0.0 | 0.0 | 0.00 | 0.00 | 0.00 | 91 | 1014.6 |
| 20260905141542 | 84 | 0 | 0.0 | 0.0 | 0.00 | 0.00 | 0.00 | 93 | 1014.7 |
| 20260905140045 | 83 | 0 | 0.0 | 0.0 | 0.00 | 0.00 | 0.00 | 95 | 1014.6 |
| 20260905134554 | 82 | 0 | 0.0 | 0.0 | 0.00 | 0.00 | 0.00 | 95 | 1014.6 |
| 20260905133050 | 82 | 0 | 0.0 | 0.0 | 0.00 | 0.00 | 0.00 | 96 | 1014.6 |
| 20260905131543 | 82 | 0 | 0.0 | 0.0 | 0.00 | 0.00 | 0.00 | 95 | 1014.6 |
| 20260905130041 | 82 | 0 | 0.0 | 0.0 | 0.00 | 0.00 | 0.00 | 96 | 1014.5 |
| 20260905124543 | 82 | 0 | 0.0 | 0.0 | 0.00 | 0.00 | 0.00 | 97 | 1014.4 |
| 20260905123038 | 81 | 0 | 0.0 | 0.0 | 0.00 | 0.00 | 0.00 | 96 | 1014.4 |
| 20260905121541 | 81 | 0 | 0.0 | 0.0 | 0.00 | 0.00 | 0.00 | 96 | 1014.4 |
| 20260905120044 | 81 | 0 | 0.0 | 0.0 | 0.00 | 0.00 | 0.00 | 96 | 1014.4 |
| 20260905114539 | 80 | 0 | 0.0 | 0.0 | 0.00 | 0.00 | 0.00 | 96 | 1014.2 |